Weather History for PADU - February, 2013

Change the Weather History Date:

Friday, February 22, 2013

  Actual Average Record
Temperature  
Mean Temperature 34 °F -  
Max Temperature 37 °F 34 °F 45 °F (1993)
Min Temperature 30 °F 24 °F 12 °F (1986)
Degree Days  
Heating Degree Days 32    
Moisture  
Dew Point 28 °F    
Average Humidity 76    
Maximum Humidity 93    
Minimum Humidity 57    
Precipitation  
Precipitation 0.09 in - - ()
Sea Level Pressure  
Sea Level Pressure 29.17 in    
Wind  
Wind Speed 16 mph (South)    
Max Wind Speed 34 mph    
Max Gust Speed 53 mph    
Visibility 5 miles    
Events Rain , Snow    
Averages and records for this station are not official NWS values.
T = Trace of Precipitation, MM = Missing Value Source: NWS Daily Summary

Daily Weather History Graph

Daily Weather History Graph

Search for Another Location

Airport or City:

Trip Planner

Search our weather history database for the weather conditions in past years. The results will help you decide how hot, cold, wet, or windy it might be!

Date:

Astronomy

Feb. 22, 2013 Rise Set
Actual Time 9:09 AM AKST 7:30 PM AKST
Civil Twilight 8:33 AM AKST 8:06 PM AKST
Nautical Twilight 7:52 AM AKST 8:47 PM AKST
Astronomical Twilight 7:11 AM AKST 9:28 PM AKST
Moon 4:38 PM AKST (2/22) 7:20 AM AKST (2/22)
Length of Visible Light 11h 33m
Length of Day
10h 21m
Waxing Gibbous, 91% of the Moon is Illuminated
Feb 22
Waxing Gibbous
Feb 25
Full
Mar 4
Last Quarter
Mar 11
New
Mar 19
First Quarter

Hourly Weather History & Observations

Time (AKST) Temp. Windchill Dew Point Humidity Pressure Visibility Wind Dir Wind Speed Gust Speed Precip Events Conditions
12:56 AM 37.0 °F 33.3 °F 25.0 °F 62% 29.80 in 10.0 mi SSE 4.6 mph - N/A   Overcast
1:56 AM 37.0 °F 31.6 °F 27.0 °F 67% 29.77 in 10.0 mi SSW 6.9 mph - N/A   Overcast
2:56 AM 37.0 °F 28.5 °F 27.0 °F 67% 29.76 in 10.0 mi SSW 13.8 mph - N/A   Clear
3:56 AM 36.0 °F 29.0 °F 27.0 °F 70% 29.75 in 10.0 mi SSE 9.2 mph - N/A   Mostly Cloudy
4:56 AM 37.0 °F 33.3 °F 28.9 °F 73% 29.71 in 10.0 mi SSW 4.6 mph - N/A   Mostly Cloudy
5:56 AM 37.9 °F 32.7 °F 28.9 °F 70% 29.65 in 10.0 mi South 6.9 mph - N/A   Clear
6:25 AM 37.4 °F 29.8 °F 28.4 °F 70% 29.61 in 10.0 mi SSE 11.5 mph - N/A   Mostly Cloudy
6:56 AM 37.9 °F 30.5 °F 30.0 °F 73% 29.60 in 10.0 mi SE 11.5 mph - N/A   Mostly Cloudy
7:56 AM 37.9 °F 31.5 °F 28.9 °F 70% 29.52 in 10.0 mi SSE 9.2 mph 19.6 mph N/A   Overcast
8:36 AM 37.4 °F 29.8 °F 30.2 °F 75% 29.46 in 10.0 mi SSE 11.5 mph 17.3 mph N/A   Overcast
8:56 AM 37.0 °F 24.3 °F 28.9 °F 73% 29.44 in 10.0 mi SE 31.1 mph 39.1 mph N/A   Overcast
9:08 AM 37.4 °F 25.9 °F 28.4 °F 70% 29.41 in 10.0 mi SE 25.3 mph 34.5 mph N/A   Overcast
9:56 AM 36.0 °F 24.7 °F 30.0 °F 79% 29.37 in 3.0 mi SE 21.9 mph 31.1 mph 0.00 in Snow Light Snow
10:13 AM 37.4 °F 24.2 °F 28.4 °F 70% 29.34 in 1.0 mi ESE 34.5 mph 43.7 mph N/A Snow Light Snow
10:20 AM 35.6 °F 22.7 °F 30.2 °F 81% 29.33 in 1.0 mi SE 28.8 mph 40.3 mph N/A Snow Light Snow
10:56 AM 34.0 °F 20.3 °F 30.0 °F 85% 29.28 in 1.0 mi SE 29.9 mph 41.4 mph N/A Snow Light Snow
11:08 AM 33.8 °F 19.9 °F 30.2 °F 87% 29.26 in 1.2 mi SE 31.1 mph 46.0 mph 0.00 in Snow Light Snow
11:20 AM 33.8 °F 19.6 °F 30.2 °F 87% 29.22 in 1.5 mi SE 32.2 mph 50.6 mph 0.00 in Snow Light Snow
11:56 AM 35.1 °F 22.5 °F 30.0 °F 82% 29.16 in 1.5 mi SE 26.5 mph 39.1 mph 0.00 in Snow Light Snow
12:08 PM 33.8 °F 19.2 °F 30.2 °F 87% 29.14 in 1.0 mi SE 34.5 mph 46.0 mph 0.00 in Snow Light Snow
12:56 PM 35.1 °F 22.5 °F 30.9 °F 85% 29.10 in 1.0 mi SE 26.5 mph 42.6 mph 0.00 in Snow Light Snow
1:13 PM 33.8 °F 20.5 °F 30.2 °F 87% 29.07 in 0.5 mi SE 27.6 mph 34.5 mph 0.01 in Snow Light Snow
1:52 PM 33.8 °F 21.3 °F 30.2 °F 87% 29.07 in 1.2 mi SE 24.2 mph 35.7 mph 0.02 in Snow Light Snow
1:56 PM 34.0 °F 22.1 °F 30.9 °F 89% 29.07 in 1.2 mi SE 21.9 mph 29.9 mph 0.02 in Snow Light Snow
2:01 PM 33.8 °F 23.9 °F 30.2 °F 87% 29.07 in 1.0 mi SSE 15.0 mph 29.9 mph 0.01 in Snow Light Snow
2:26 PM 33.8 °F 27.7 °F 30.2 °F 87% 29.05 in 2.0 mi South 6.9 mph - 0.04 in Snow Light Snow
2:49 PM 33.8 °F - 30.2 °F 87% 29.04 in 4.0 mi Calm Calm - 0.06 in Snow Light Snow
2:51 PM 33.8 °F - 32.0 °F 93% 29.03 in 5.0 mi Calm Calm - 0.06 in Snow Light Snow
2:56 PM 34.0 °F - 30.9 °F 89% 29.03 in 5.0 mi Calm Calm - 0.06 in Snow Light Snow
2:57 PM 33.8 °F - 32.0 °F 93% 29.03 in 5.0 mi Calm Calm - 0.00 in Snow Light Snow
2:58 PM 33.8 °F - 32.0 °F 93% 29.03 in 8.0 mi Calm Calm - 0.00 in Snow Light Snow
3:14 PM 33.8 °F - 32.0 °F 93% 29.03 in 2.0 mi Calm Calm - 0.00 in Snow Light Snow
3:17 PM 33.8 °F - 30.2 °F 87% 29.03 in 1.2 mi Calm Calm - 0.01 in Snow Light Snow
3:31 PM 35.6 °F 31.7 °F 32.0 °F 87% 29.02 in 8.0 mi South 4.6 mph - 0.01 in Snow Light Snow
3:56 PM 37.0 °F 29.3 °F 28.0 °F 70% 29.01 in 8.0 mi SW 11.5 mph 19.6 mph 0.01 in Snow Light Snow
4:16 PM 37.4 °F 24.2 °F 28.4 °F 70% 29.02 in 2.0 mi SW 34.5 mph 49.5 mph 0.00 in Snow Light Snow
4:18 PM 35.6 °F 21.9 °F 28.4 °F 75% 29.03 in 1.2 mi SW 33.4 mph 52.9 mph 0.00 in Snow Light Snow
4:19 PM 35.6 °F 22.3 °F 28.4 °F 75% 29.02 in 1.5 mi SW 31.1 mph 52.9 mph 0.00 in Snow Light Snow
4:31 PM 35.6 °F 24.5 °F 26.6 °F 70% 29.02 in 5.0 mi WSW 20.7 mph 40.3 mph 0.00 in Snow Light Snow
4:50 PM 35.6 °F 26.2 °F 28.4 °F 75% 29.02 in 2.0 mi WSW 15.0 mph 24.2 mph 0.00 in Snow Light Snow
4:56 PM 34.0 °F 24.2 °F 30.0 °F 85% 29.02 in 1.5 mi West 15.0 mph 23.0 mph 0.00 in Snow Light Snow
5:13 PM 35.6 °F 23.7 °F 24.8 °F 65% 29.01 in 8.0 mi WSW 24.2 mph 38.0 mph 0.00 in Snow Light Snow
5:27 PM 35.6 °F 26.2 °F 24.8 °F 65% 29.01 in 8.0 mi SW 15.0 mph 27.6 mph 0.00 in Snow Light Snow
5:56 PM 36.0 °F 24.2 °F 24.1 °F 62% 29.01 in 6.0 mi WSW 24.2 mph 33.4 mph 0.00 in Snow Light Snow
6:03 PM 35.6 °F 22.7 °F 26.6 °F 70% 29.02 in 5.0 mi WSW 28.8 mph 41.4 mph 0.00 in Snow Light Snow
6:06 PM 35.6 °F 22.3 °F 26.6 °F 70% 29.03 in 2.0 mi WSW 31.1 mph 41.4 mph 0.00 in Snow Light Snow
6:18 PM 33.8 °F 22.5 °F 26.6 °F 75% 29.01 in 1.0 mi WSW 19.6 mph - N/A Snow Light Snow
6:28 PM 35.6 °F 23.2 °F 24.8 °F 65% 29.00 in 9.0 mi WSW 26.5 mph 31.1 mph N/A Snow Light Snow
6:53 PM 35.6 °F 24.0 °F 23.0 °F 60% 29.01 in 10.0 mi WSW 23.0 mph 34.5 mph N/A Snow Light Snow
6:56 PM 36.0 °F 23.9 °F 21.9 °F 57% 29.01 in 10.0 mi WSW 25.3 mph 34.5 mph N/A Snow Light Snow
7:25 PM 35.6 °F 24.2 °F 23.0 °F 60% 29.01 in 10.0 mi WSW 21.9 mph 29.9 mph N/A Rain Light Rain
7:56 PM 35.1 °F 23.8 °F 24.1 °F 64% 29.01 in 9.0 mi SW 20.7 mph 31.1 mph N/A Rain Light Rain
8:24 PM 33.8 °F 19.6 °F 26.6 °F 75% 29.05 in 2.0 mi WSW 32.2 mph 40.3 mph N/A Rain Rain
8:26 PM 33.8 °F 19.6 °F 26.6 °F 75% 29.06 in 1.2 mi WSW 32.2 mph 40.3 mph N/A Snow Light Snow
8:30 PM 32.0 °F 18.6 °F 28.4 °F 87% 29.04 in 0.8 mi SSW 25.3 mph 40.3 mph N/A Snow Light Snow
8:34 PM 32.0 °F 18.9 °F 26.6 °F 80% 29.03 in 1.2 mi SSW 24.2 mph 39.1 mph N/A Snow Light Snow
8:37 PM 30.2 °F 17.1 °F 26.6 °F 86% 29.02 in 2.5 mi SSW 21.9 mph 31.1 mph N/A Snow Light Snow
8:39 PM 30.2 °F 19.8 °F 26.6 °F 86% 29.02 in 5.0 mi South 13.8 mph 29.9 mph N/A Snow Light Snow
8:56 PM 32.0 °F 19.8 °F 24.1 °F 73% 29.03 in 8.0 mi SSW 20.7 mph 25.3 mph N/A   Overcast
9:56 PM 35.1 °F 24.8 °F 21.9 °F 59% 29.00 in 10.0 mi SSW 17.3 mph - N/A   Scattered Clouds
10:56 PM 35.1 °F 24.1 °F 21.9 °F 59% 29.00 in 10.0 mi SSW 19.6 mph 26.5 mph N/A Rain Light Rain
11:56 PM 33.1 °F 24.9 °F 24.1 °F 70% 29.00 in 10.0 mi SW 10.4 mph 20.7 mph N/A Rain Light Rain